Timeline UpdatesTrip UpdatesNews PostsPvt Posts♥♥Travel TipsAdmin PostsConv PostsFollowed PostsChat RequestsBlog PostsPNR Posts

Disclaimer
Search
 
 
Sat Dec 20, 2014 15:14:00 ISTHomeTrainsΣChainsAtlasPNRForumGalleryNewsFAQTripsMembersLoginFeedback
No Recent News for this Train
Other Trains in the News **new
Latest...
⇐ Return Journey: Train# 53043

53044/Rajgir - Howrah Fast Passenger (UnReserved)

Time-Table HAS CHANGED.
Sep 03 2014 (12:25AM)
Change Departure Station:
Change Arrival Station:
Post a Train Travel TipPost a Train Travel Tip **new
Post a Comment/Question/Picture/VideoPost a Comment/Question/Picture/Video
Pantry/Catering
✕ NO Pantry Car
✕ NO Catering
Loco/Rake Reversals
BKP/Bakhtiyarpur Junction (5);
RSA - Rake Sharing
Rake/Coach Composition
Loco
HWH WDM 3A/3D
News    PNR    Forum    Time-Table    Availability    Fare Chart    Map    Arr/Dep History    Trips    Gallery    ΣChains    X/O    Timeline    
Travel Time: 16h 12m    48 halts    Distance: 480 km    Avg Speed: 29 km/hr
Type: Passenger
Zone: ER/Eastern
Departs @ 19:58 (Avg 1h 30m late)
Platform# 1
SMTWTFS
Jamalpur Junction/JMP 
Arrives @ 12:10 +1 night (Avg 2h 37m late)
Platform# 1
SMTWTFS
Kolkata Howrah Junction/HWH 

48 halts. 102 intermediate Stations between Jamalpur Junction and Kolkata Howrah Junction

Show ALL intermediate Stations  Show Old Time-Table

#TrkCodeStation NameX/OArrivesAvgDepartsAvgHaltPFDay#KmSpeedElevZoneAddress
1|--|RGDRajgir (3)  -12:40+49--1-176.43871mECRRajgir, Bihar
2|--|NLDNalanda (2)  12:58+1:0412:59+1:051m--1-165.24063mECRNational Highway 82, Bihar
3|--|BEHSBihar Sharif (2)  13:18+1:4413:23+1:525m--1-152.63656mECR06112-222306, Bihar
4|--|WENAWena (2)  13:46+1:4813:47+1:491m--1-138.6947mECRWena, Bihar
5|--|HRTHarnaut (3)X  14:21+1:2414:28+1:257m--1-133.55349mECRHarnaut, Bihar
6|--|BKPBakhtiyarpur Junction (5)XO14:40+1:0715:10+1:2830m--1-122.86851mECRPatna, Bihar
7/==/ATLAthmal Gola (2)  15:18+2:1115:19+2:121m--1-113.85052mECRPatna, Bihar
8/==/BARHBarh (3)X  15:30+1:0315:32+1:052m--1-104.77749mECRBarh, Bihar
9/==/PHKPunarakh (2)  15:40+2:2315:41+2:241m--1-94.52951mECRPunarakh, Bihar
10/==/MORMor (2)XO  15:58+2:0716:27+1:5329m--1-86.34946mECRMor, Bihar
11/==/MKAMokama Junction (4)  16:36+1:1616:40+1:154m--1-79.05648mECRPatna, Bihar
12/==/HTZHathidah Junction (2)X  16:49+1:3816:51+1:412m11-70.64650mECRMusahari, Bihar
13/==/RDUMRampur Dumra (3)O  16:56+2:1316:57+2:151m--1-66.83746mECRNational Highway 80, Bihar
14/==/BRYABarhiya (3)  17:06+1:4717:08+1:472m--1-61.22247mECRBarahiya, Bihar
15/==/MKBMankatha  17:34+2:0617:40+2:096m--1-51.83047mECRNational Highway 80, Bihar
16/==/LKRLuckeesarai Junction (2)X  17:51+1:4717:53+1:462m--1-46.21252mECRLakhisarai, Bihar
17/==/KIULKiul Junction (5)X  18:00+1:1618:25+1:0925m--1-44.83653mECRDist. Lakhisarai, Bihar
18|==|DNREDhanauri  18:35+1:5818:37+1:582m--1-38.84948mERNational Highway 80, Bihar
19|==|URENUrenX  18:43+1:5918:45+1:582m--1-33.95845mERUren, Bihar
20!==|KJHKajra (2)  18:50+1:5918:51+2:001m--1-29.16250mERLakhisarai District, Bihar
21|==|AHAAbhaipur (3)  18:58+2:0218:59+2:031m--1-21.84852mERAbhaipur, Bihar
22|==|MSDNMasudan (2)  19:04+2:0419:05+2:041m--1-17.86045mERMasudan, Bihar
23|==|DRHDharhara (2)  19:11+2:0419:12+2:051m--1-11.81855mERDharhara, Bihar
24|==|DRTPDasharathpur (2)  19:30+1:5519:31+1:561m--1-6.43248mERDharhara, Bihar
25|-=|JMPJamalpur Junction (4)»  19:43+1:2819:58+1:3015m110.04259mERDist: Munger 06344-243101, Bihar
26|-=|RPURRatanpur (2)  20:07+2:0520:08+2:051m--16.35846mERRatanpur Railway Station, Bihar
27|==|BUPBariarpur (3)  20:13+2:0720:14+2:101m--111.11142mERMunger, Bihar
28|==|KPRDKalyanpur Road (3)  20:21+2:1020:22+2:101m--112.41040mERMunger, Bihar
29|==|GNNAGangani (2)  20:29+2:0920:30+2:091m--113.613338mERGangania, Bihar
30|==|SGGSultanGanj (3)  20:37+2:1020:40+2:103m--129.16642mERSultanganj, Bihar
31|==|MVVMaheshi (2) new halt!!  20:46-20:47-1m--135.74137mERTilakpur, Bihar
32|==|AKNAkbarnagar (3)  20:52+2:1620:53+2:161m--139.14439mERTilakpur, Bihar
33|==|NATNathnagar (2)  21:01+2:1721:02+2:171m--149.34048mERBhagalpur, Bihar
34!==|BGPBhagalpur Junction (6)X  21:09+1:3421:19+1:3510m--154.05049mERBhagalpur, Bihar
35!==!SBOSabaur (3)  21:28+2:4521:29+2:471m--161.64442mERSabour, Bihar
36!==!LMMLailakh Mamalkha (2)  21:38+2:4821:39+2:521m--168.25836mERLailakh Mamlkha, Bihar
37!==!GGAGhoga (2)  21:45+2:5221:47+2:582m--174.06942mERGhoga, Bihar
38!==!EKCEkchari (1)  21:52+3:0621:53+3:061m1179.75237mERNational Highway 80, Bihar
39!==!CLGKahalgaon (2)  21:58+3:1722:00+3:212m1184.14944mERBhagalpur, Bihar
40!==!SVRPShivanarayanpur (2)X  22:14+2:5522:38+2:3924m--195.54847mERShivanarayanpur, Bihar
41!==!PPTPirpainti (2)  22:49+3:0222:51+3:042m--1104.45653mERBhagalpur, Bihar
42!==!MZCMirza Cheuki (3)X  23:00+3:0523:06+3:056m31112.92638mERBihar, Bihar
43!==!SBGSahibganj Junction (3)X  23:41+2:3323:59+2:3418m11128.05238mERSahibganj, Jharkhand
44!==!SLJSakrigali Junction (3)X  00:08+2:5900:09+3:101m--2135.85345mERSakrigali, Jharkhand
45!==!MJPMaharajpur (2)  00:16+3:1300:17+2:141m--2141.98534mERMoharajpur, Jharkhand
46|==!TLJTaljhari  00:27+2:3200:28+2:381m--2156.15838mERTaljhari, Jharkhand
47|==|KXEKalian Chak  00:33+2:4200:34+2:471m--2160.95845mERKalian Chak, Jharkhand
48|==|TPHTinpahar Junction (3)  00:39+2:5000:42+2:513m22165.75945mERBamangawan, Jharkhand
49|==|BKLEBakudi (3)  00:51+2:5400:52+3:051m--2174.52665mERBakudi, Jharkhand
50|==|BHWBarharwa Junction (3)X  01:10+2:3601:20+2:3710m22182.44436mERBarharwa, Jharkhand
51%==%GMANGumani (3)X  01:30+3:0301:31+3:031m--2189.86731mERGumani, Jharkhand
52%==%KLPKotalpukur (3)XO  01:37+3:0501:39+3:042m--2196.52240mERKotalpukur, Jharkhand
53%==%PKRPakur (2)X  02:10 02:11+2:2702:11 02:16+2:271 5m22208.56337mERDist:- Pakur, Jharkhand
54%==%RJGRajgram (3)  02:26+2:5902:27+3:001m22219.07032mERDist - Birbhum, West Bengal
55%==%MRRMurarai (3)X  02:37+3:0402:38+3:061m--2230.77036mERDist - Birbhum, West Bengal
56%==%NHTNalhati Junction (4)X  02:52+3:2702:54+3:312m22246.92948mERDist - Birbhum, West Bengal
57%==%RPHRampurhat (3)  03:23+3:0803:43+3:0120m--2261.06741mERDIST - Birbhum, West Bengal
58%==%SNTSainthia Junction (4)  04:08+3:1004:13+3:095m42289.04758mERDist - Birbhum, West Bengal
59%==%AMPAhmadpur Junction (3)O  04:30+3:0704:35 04:32+3:065 2m--2302.32546mERDist - Birbhum, West Bengal
60%==%PNEPrantik (3)  05:08+1:5705:09+1:571m--2317.55148mERDist - Birbhum, West Bengal
61%==%BHPBolpur Shantiniketan (3)  05:14+2:2905:19+2:285m--2321.86059mERDist - Birbhum, West Bengal
62%==%BDHBhedia (2)  05:27+2:3905:28+2:391m--2329.85541mERDist - Bardhaman, West Bengal
63%==%GKHGuskara (2)X  05:40+2:3905:41+2:391m12340.76041mERDist - Bardhaman, West Bengal
64%==%BPSBanpas (3)  05:51+1:5705:52+1:571m--2350.71146mERDist - Bardhaman, West Bengal
65/==%KANKhana Junction (5)X  06:45+2:0506:46+2:051m--2360.45642mERDist - Bardhaman, West Bengal
66/==/BWNBarddhaman Junction (8)XO  07:00+3:3007:20+3:2820m--2373.55034mERDist - Barddhaman, West Bengal
67/==/MYMMemari (4)  07:50+2:0208:00+2:1810m--2398.62225mERMemari, West Bengal
68/==/MUGMagra (3)  09:38+1:2209:43+1:375m--2434.0715mERMagra, West Bengal
69/==/BDCBandel Junction (7)  10:44+1:5710:50+1:576m--2440.83214mERdist - HOOGHLY, West Bengal
70/==/CNSChuchura (3)  10:57+4210:58+421m--2444.53615mERDist - HOOGHLY - 712102, West Bengal
71/==/CGRChandan Nagar (3)  11:03+1311:05+132m--2447.55316mERDist -HOOGHLY - 712136, West Bengal
72/==/SHESeoraphuli Junction (6)  11:17+1:0411:19+1:042m--2458.23013mERBaidyabati, West Bengal
73/==/SRPSerampore (4)X  11:24+1:2811:28+1:284m--2460.72811mERdist - hooghly, West Bengal
74/==/HWHKolkata Howrah Junction (23)•  12:10+2:37-12480.2-10mERHowrah 711101, West Bengal
Scroll to Top
Scroll to Bottom


Go to Mobile site